• Processing (Info)

  • MPEC 2023-F217 : 2023 FO7

    The following Minor Planet Electronic Circular may be linked-to from your own Web pages, but must not otherwise be redistributed electronically.

    A form allowing access to any MPEC is at the bottom of this page.


    Read MPEC 2023-F216 Read MPEC 2023-F218


    M.P.E.C. 2023-F217                               Issued 2023 March 29, 13:18 UT
    
         The Minor Planet Electronic Circulars contain information on unusual
             minor planets, routine data on comets and natural satellites,
             and occasional editorial announcements.  They are published
        on behalf of Division F of the International Astronomical Union by the
              Minor Planet Center, Smithsonian Astrophysical Observatory,
                              Cambridge, MA 02138, U.S.A.
    			  
                 Prepared using the Tamkin Foundation Computer Network
    
                                  MPC@CFA.HARVARD.EDU
                URL https://www.minorplanetcenter.net/    ISSN 1523-6714
    
                                    2023 FO7                                 
    
    
    Observations:
         K23F07O* C2023 03 27.34681911 21 23.552-10 15 39.12         21.59wUEF217F51
         K23F07O  C2023 03 27.35670811 21 23.637-10 15 09.33         20.92wUEF217F51
         K23F07O  C2023 03 27.35874311 21 23.659-10 15 03.30         20.77wUEF217F51
         K23F07O  C2023 03 27.36864411 21 23.736-10 14 33.62         20.74wUEF217F51
         K23F07O  C2023 03 27.37067611 21 23.754-10 14 27.62         20.92wUEF217F51
         K23F07O  C2023 03 27.38059811 21 23.832-10 13 58.04         21.58wUEF217F51
         K23F07O  C2023 03 27.38262511 21 23.856-10 13 51.93         21.46wUEF217F51
         K23F07O  C2023 03 27.50782511 21 24.986-10 07 36.28         21.38GVEF217F51
         K23F07O  C2023 03 27.50846611 21 24.997-10 07 34.34         21.29GVEF217F51
         K23F07O  C2023 03 27.50982311 21 25.012-10 07 30.13         21.15GVEF217F51
         K23F07O  C2023 03 27.51046211 21 25.008-10 07 28.28         21.45GVEF217F51
         K23F07O  C2023 03 27.51682211 21 25.099-10 07 09.27         20.94GVEF217F51
         K23F07O |C2023 03 28.05431 11 21 40.12 -09 40 21.9          21.5 VuEF217807
         K23F07O |C2023 03 28.06199 11 21 40.26 -09 39 59.2          21.2 VuEF217807
         K23F07O |C2023 03 28.06968 11 21 40.39 -09 39 37.2          21.3 VuEF217807
         K23F07O KC2023 03 28.30107 11 21 44.23 -09 29 09.0          21.0 RVEF217691
         K23F07O KC2023 03 28.31990 11 21 44.45 -09 28 14.9          21.4 RVEF217691
         K23F07O KC2023 03 28.33871 11 21 44.65 -09 27 21.4          20.3 RVEF217691
         K23F07O KC2023 03 29.49370011 22 12.80 -08 33 23.1          20.6 GVEF217474
         K23F07O KC2023 03 29.50073811 22 12.90 -08 33 04.8          20.9 GVEF217474
         K23F07O KC2023 03 29.50777711 22 12.98 -08 32 45.2          21.4 GVEF217474
         K23F07O KC2023 03 29.51481511 22 13.07 -08 32 26.8          21.1 GVEF217474
    
    Observer details:
    474 Mount John Observatory, Lake Tekapo.  Observers A. C. Gilmore, P. M.
        Kilmartin.  Measurer P. M. Kilmartin.  1.0-m f/7.7 reflector + CCD.
    691 Steward Observatory, Kitt Peak-Spacewatch.  Observer J. V. Scotti.  0.9-m
        f/3 reflector + CCD.
    807 Cerro Tololo Observatory, La Serena.  Observers T. Linder, R. Holmes, L.
        Horn.  0.61-m f/6.5 Dall-Kirkham Astrograph + CCD.
    F51 Pan-STARRS 1, Haleakala.  Observers J. Bulger, T. Lowe, A. Schultz, I.
        Smith, K. Chambers.  Measurers K. Chambers, S. Chastel, T. de Boer, J.
        Fairlamb, H. Gao, M. Huber, C.-C. Lin, E. Magnier, Y. Ramanjooloo, R.
        Wainscoat, R. Weryk.  1.8-m Ritchey-Chretien + CCD.
    
    Orbital elements:
    2023 FO7                                                 Earth MOID = 0.0010 AU
    Epoch 2023 Feb. 25.0 TT = JDT 2460000.5                 Veres                   
    M  29.21404              (2000.0)            P               Q                  
    n   0.56582202     Peri.  245.66063     +0.03230337     -0.99804434             
    a   1.4477142      Node   202.68308     +0.95993099     +0.04589349             
    e   0.4313229      Incl.    7.97696     +0.27836842     -0.04244155             
    P   1.74           H   23.11          G   0.15           U   9                  
    Residuals in seconds of arc
    230327 F51  0.2-  0.1-    230327 F51  0.1+  0.0     230328 691  0.4+  0.2-
    230327 F51  0.1-  0.1+    230327 F51  0.1+  0.1+    230328 691  0.2+  0.6-
    230327 F51  0.0   0.1+    230327 F51  0.1-  0.0     230329 474  0.1+  0.2+
    230327 F51  0.1-  0.1+    230327 F51  0.2+  0.1-    230329 474  0.1+  0.4-
    230327 F51  0.1-  0.0     230328 807 (0.8-  0.6-)   230329 474  0.1-  0.3+
    230327 F51  0.1-  0.1-    230328 807  0.2-  0.1+    230329 474  0.2-  0.2-
    230327 F51  0.0   0.1-    230328 807  0.4+  0.0
    230327 F51  0.1+  0.1-    230328 691  0.1+  0.3-
    
    Ephemeris:
    2023 FO7                 a,e,i = 1.45, 0.43, 8                   q = 0.8233
    Date    TT    R. A. (2000) Decl.     Delta      r    Elong.  Phase     V
    2023 02 27    11 02 40.1 -59 46 49   0.1158  1.0380   111.4    62.6    20.7
    ...
    2023 03 14    11 16 53.6 -26 12 04   0.1624  1.1383   150.7    25.3    20.6
    ...
    2023 03 22    11 19 32.5 -15 23 48   0.2056  1.1929   161.5    15.4    20.9
    ...
    2023 03 28    11 21 37.7 -09 43 14   0.2448  1.2338   162.8    13.8    21.3
    2023 03 29    11 22 01.0 -08 56 07   0.2518  1.2406   162.5    14.0    21.4
    2023 03 30    11 22 25.3 -08 11 25   0.2590  1.2474   162.1    14.3    21.5
    ...
    2023 04 05    11 25 10.5 -04 27 57   0.3051  1.2879   157.9    17.0    22.0
    ...
    2023 04 13    11 29 46.6 -01 04 14   0.3737  1.3409   150.7    21.4    22.7
    ...
    2023 04 28    11 41 22.6 +02 08 40   0.5225  1.4368   137.7    28.1    23.7
    
    M. P. C. Staff               (C) Copyright 2023 MPC           M.P.E.C. 2023-F217
    


    Read MPEC 2023-F216 Read MPEC 2023-F218


    MPEC number:

    Enter an MPEC number in one of the following forms:

    • 1997-B01 (the full form)
    • J97B01 (the packed version of the full form)
    • B01 (the abbreviated form)